Theta_e
304 304 303 302 303 303 302 302 303 303 305 305 304 303 304 303 302 302 302 301 304 303 304 305 305 305 305 306 306 306 306 307 307 308 309 309 309 309 309 310 310 309 309 307
303 304 303 304 304 304 304 304 304 303 305 305 303 304 302 302 305 305 305 305 304 303 303 304 303 303 303 303 304 304 305 305 305 306 307 307 308 308 309 309 309 310 309 308
304 304 304 305 304 306 305 304 306 306 305 303 302 300 300 302 306 307 306 305 304 303 302 302 302 302 302 302 302 303 304 304 305 305 306 306 307 308 308 309 309 309 310 309
304 304 305 304 305 302 306 305 306 306 300 300 301 300 302 303 306 308 307 305 304 302 301 301 301 301 301 302 303 303 304 304 305 306 306 307 307 308 309 309 309 309 309 309
304 305 306 306 306 301 305 306 306 304 294 294 302 298 302 302 308 307 306 306 304 302 301 300 301 302 303 304 304 304 304 305 305 307 307 308 308 308 310 309 309 309 309 310
303 303 304 305 306 306 306 305 300 298 290 295 299 301 303 305 308 308 307 306 304 302 301 301 303 303 304 304 304 304 304 305 306 306 307 309 309 309 309 309 309 309 309 309
301 304 305 304 305 303 302 298 295 298 298 300 292 300 305 304 307 308 307 306 304 302 301 302 303 304 305 305 304 304 305 305 305 305 307 307 310 312 311 309 309 308 308 309
296 299 306 304 304 303 303 297 297 299 297 300 300 305 304 303 306 307 306 305 304 303 302 303 304 305 304 304 304 304 304 304 305 304 305 308 309 312 311 310 309 308 309 309
303 304 305 307 308 307 307 300 305 307 303 306 298 301 302 308 308 307 307 307 305 303 304 303 303 303 303 303 303 303 304 304 304 305 305 306 309 311 310 309 309 309 309 309
304 302 307 309 307 308 307 307 310 307 300 301 301 298 304 303 308 308 308 307 306 304 304 303 302 302 302 301 301 302 303 303 303 304 306 308 310 310 310 310 309 310 310 310
304 301 308 310 309 307 309 308 308 305 308 302 308 304 300 304 307 308 306 305 305 304 304 303 301 300 300 299 299 300 302 302 302 303 306 309 311 312 312 312 311 311 311 310
306 302 301 308 307 305 306 306 306 309 303 309 306 307 305 306 307 307 306 306 305 305 304 301 300 299 298 298 298 299 301 301 301 302 307 312 314 314 313 312 310 309 309 309
306 306 300 309 311 308 311 307 306 307 308 309 304 305 308 308 308 307 306 306 306 305 303 300 298 298 298 297 297 297 299 300 301 303 307 311 313 314 314 314 312 311 310 309
308 308 305 303 304 308 312 310 308 309 313 306 306 305 308 307 307 307 305 304 304 304 303 300 298 297 297 297 297 297 299 299 301 303 305 307 308 309 311 314 314 314 313 312
308 308 307 307 308 308 309 309 309 310 312 312 308 308 308 307 306 306 305 306 306 304 302 300 298 297 297 297 296 296 299 300 300 302 303 304 306 307 307 309 309 311 312 313
307 308 308 307 306 307 308 308 309 309 310 310 311 311 309 308 305 306 305 305 305 304 302 300 298 297 297 296 296 295 297 299 300 300 301 302 304 305 305 305 305 305 306 306
306 309 308 307 305 305 306 306 307 308 308 310 311 310 307 307 306 305 305 303 303 303 302 299 298 297 297 296 296 295 296 299 299 299 301 301 302 303 303 304 304 304 304 304
304 305 308 308 303 306 303 302 305 306 306 307 308 308 306 305 304 302 301 302 302 302 301 298 297 297 297 296 296 295 295 297 298 298 299 301 302 302 302 302 302 301 302 303
301 304 309 307 304 303 304 305 304 305 304 304 306 306 305 302 303 303 302 301 301 300 299 298 299 298 298 297 296 296 294 295 297 298 298 299 300 301 301 300 300 300 300 300
301 302 307 307 306 307 300 304 306 302 303 302 303 304 304 304 305 302 302 302 301 301 300 299 299 299 298 298 297 296 295 294 294 295 296 297 298 299 300 300 299 299 298 298
305 306 307 307 307 303 301 302 304 304 299 304 304 305 302 304 302 301 302 302 302 302 301 300 299 299 299 298 297 296 295 294 294 294 294 295 296 297 297 298 299 298 297 297
302 303 304 305 305 302 299 301 304 301 299 304 304 304 302 301 301 300 300 300 300 299 300 300 299 299 300 299 298 297 296 296 294 293 293 294 295 295 295 296 297 297 296 295
303 301 301 302 302 299 299 302 302 298 302 303 304 302 302 302 301 300 300 299 299 300 300 300 299 299 300 300 299 297 299 297 295 294 293 292 293 293 294 294 294 295 294 294
297 297 300 301 300 301 299 299 299 300 300 301 301 301 301 300 300 300 299 298 298 300 300 301 299 298 299 300 300 299 299 298 296 295 294 293 292 292 292 292 293 293 293 293
296 296 298 297 298 298 298 296 296 296 296 297 297 298 298 297 296 296 297 297 298 299 301 300 299 299 300 301 300 300 300 298 297 296 295 293 292 291 291 292 291 292 292 292
294 298 299 300 297 297 296 297 296 294 296 296 296 295 294 294 294 295 295 296 298 299 300 300 300 299 301 301 301 301 300 299 298 296 295 294 293 292 291 290 290 290 290 291
Wind_Speed
5 8 4 3 3 3 6 4 3 1 4 4 0 6 17 12 6 8 7 4 5 7 9 14 18 19 20 20 22 21 21 21 22 24 25 28 28 30 30 30 28 27 28 29
7 5 2 3 6 7 6 4 3 3 4 3 6 13 12 5 2 3 4 3 6 8 9 17 21 22 24 27 30 29 29 29 29 28 30 30 31 32 30 31 30 28 26 26
7 2 2 4 6 6 5 5 2 0 6 4 8 6 3 3 2 2 2 2 4 6 9 12 21 23 24 24 28 29 30 31 31 30 29 30 31 32 31 34 34 33 30 28
6 4 4 5 5 4 2 1 2 2 4 2 4 4 5 3 4 2 5 6 7 8 6 8 15 20 23 26 30 29 28 28 29 27 25 26 27 24 25 28 32 32 29 28
3 2 4 5 2 3 3 1 0 2 4 4 2 3 7 3 4 5 6 7 7 7 7 9 15 18 23 25 29 29 29 29 26 23 24 25 27 28 32 29 29 33 31 28
3 1 2 2 3 3 2 3 5 4 3 3 3 3 6 4 4 3 5 7 7 9 9 13 19 19 19 21 21 23 24 24 23 24 25 25 27 27 25 26 29 30 32 29
6 3 3 2 3 5 5 5 3 5 4 5 2 0 9 6 5 4 7 9 8 8 9 9 10 19 26 27 28 25 23 23 22 22 21 25 26 27 28 27 28 28 29 28
4 5 1 1 3 4 1 5 4 5 2 4 1 6 6 5 6 6 8 9 9 8 8 7 13 18 21 21 20 22 25 25 23 23 23 21 27 24 25 24 23 26 28 27
4 2 1 2 1 1 2 1 4 0 1 2 3 7 8 4 7 9 8 7 9 8 8 8 15 15 16 18 20 22 24 24 22 20 20 22 23 18 21 22 23 25 24 24
4 3 2 3 2 2 2 2 2 1 1 4 5 5 6 4 7 7 7 8 9 6 9 8 10 13 17 20 23 25 25 24 24 20 17 18 18 16 18 21 21 21 21 20
3 3 1 1 4 7 3 2 3 2 3 3 4 6 7 8 7 8 9 8 9 8 8 5 7 15 16 21 23 25 23 24 24 23 17 15 15 15 15 15 16 17 17 17
1 4 2 8 3 8 4 6 6 3 3 3 2 7 5 9 7 7 10 10 7 8 5 4 8 13 17 21 24 23 23 22 23 23 14 12 13 8 10 13 13 13 13 12
3 1 2 4 1 2 4 5 5 2 2 6 4 6 3 5 8 10 9 12 8 6 6 5 7 10 15 18 23 23 22 22 24 22 17 15 12 10 10 11 11 10 10 10
5 2 5 6 4 3 4 5 9 7 4 3 9 10 19 10 10 11 9 8 8 5 6 5 5 9 14 16 19 21 21 23 24 22 19 18 18 17 14 11 8 8 8 8
3 4 4 8 11 10 14 11 10 14 15 8 3 11 17 14 9 8 8 4 6 7 6 5 5 6 12 16 19 22 24 23 22 21 22 19 17 17 17 16 13 10 8 6
3 3 3 9 9 8 12 16 18 20 20 20 22 27 24 19 5 5 7 6 7 8 6 5 4 7 10 14 18 20 21 20 19 17 17 18 16 16 16 16 15 14 12 12
3 3 5 5 4 8 8 13 19 9 7 19 16 22 10 12 7 7 7 7 8 7 7 5 4 5 7 9 11 14 16 16 15 15 16 17 16 14 14 12 12 13 13 12
5 2 1 5 6 3 5 2 4 13 11 17 13 13 7 8 6 8 8 7 8 6 7 6 6 7 5 6 8 10 11 12 13 14 15 17 17 15 13 12 11 10 10 10
4 3 2 3 3 9 8 2 6 7 7 11 17 15 11 7 5 8 8 7 8 6 8 9 9 7 5 6 7 8 9 9 9 11 13 14 15 14 14 14 13 12 12 11
5 2 4 1 4 5 4 1 3 3 5 5 7 7 4 3 2 5 4 2 5 9 9 11 9 8 8 7 7 8 9 9 8 8 9 9 10 10 11 12 12 11 11 11
4 3 9 9 6 9 10 4 1 2 6 6 6 5 6 4 6 3 4 4 4 10 13 11 11 13 12 9 8 10 10 11 9 8 8 8 7 7 7 7 7 7 7 7
8 7 5 7 7 9 8 6 7 6 2 4 5 4 6 8 8 7 8 7 7 10 12 14 15 18 15 12 12 14 14 10 9 8 8 8 7 7 7 6 6 5 6 6
4 7 6 10 8 6 7 7 8 3 4 5 4 6 7 7 6 7 6 7 8 14 17 17 19 20 18 17 17 18 19 11 11 11 11 10 9 8 7 7 7 6 5 4
5 5 4 1 8 19 13 9 7 8 9 7 6 6 5 7 7 7 7 7 6 14 18 20 17 20 24 20 21 23 18 14 13 14 13 12 11 9 8 8 7 7 6 6
5 6 6 7 15 12 17 11 10 11 8 7 6 5 8 6 8 7 6 7 10 15 19 17 19 22 27 23 22 22 20 19 19 17 15 14 13 12 11 10 9 9 9 8
7 10 7 10 8 5 5 4 5 6 8 9 7 5 6 7 8 6 7 12 14 15 18 17 20 22 26 24 23 22 21 21 22 21 20 18 16 15 15 14 13 11 10 9
Wind_Direction
22 64 64 59 40 88 104 94 94 74 10 359 106 279 283 306 275 285 320 44 2 340 315 333 336 335 328 322 319 315 310 298 295 292 292 287 283 285 281 280 282 281 275 268
40 66 10 69 61 77 59 90 8 284 14 355 349 293 290 306 320 102 110 31 353 333 330 330 333 333 328 320 317 314 309 303 298 290 283 283 282 282 280 279 276 274 274 268
98 116 38 80 43 67 40 90 46 339 333 43 321 297 328 280 126 125 70 316 298 300 310 323 327 324 322 319 317 312 308 308 304 299 291 284 280 278 274 273 271 266 270 272
67 357 74 65 62 68 82 47 71 33 45 264 9 274 293 248 263 241 327 333 317 317 305 293 310 315 316 314 317 313 309 304 303 297 287 281 276 271 272 274 276 274 270 271
245 64 72 71 64 108 177 95 68 89 81 47 326 79 269 272 248 250 301 296 297 290 287 292 296 297 306 312 317 315 309 301 300 294 288 281 273 272 277 275 270 269 268 266
65 17 62 115 81 64 86 76 44 62 93 16 243 136 277 208 206 253 278 294 295 306 303 291 291 301 307 316 312 310 305 300 293 290 287 283 272 268 267 269 268 265 267 265
352 336 318 84 67 17 74 52 346 355 12 222 276 27 249 267 232 237 289 292 291 291 289 289 309 339 325 316 314 314 309 301 297 288 279 281 273 275 261 260 260 259 260 262
126 331 170 172 146 168 112 131 152 215 230 275 333 238 250 227 218 242 260 267 278 285 281 307 313 304 298 302 310 321 321 315 300 293 287 286 282 274 262 262 258 256 258 265
142 287 98 59 65 103 155 330 181 15 40 296 252 284 293 207 266 259 259 269 277 274 294 284 281 289 308 318 330 330 320 318 314 298 291 286 300 280 276 279 276 267 267 270
192 65 220 144 105 64 109 233 126 81 285 283 285 278 243 270 256 277 296 273 278 285 265 263 276 307 323 330 331 330 330 323 323 317 298 293 301 293 284 283 281 277 276 274
123 97 301 58 214 187 142 213 194 201 228 191 307 273 217 212 212 243 262 264 262 254 257 272 309 342 339 349 347 332 330 331 331 328 319 303 295 285 283 287 284 280 281 276
167 126 194 220 220 186 171 188 180 176 247 237 185 272 227 221 225 231 261 265 258 253 289 312 334 346 352 352 346 338 335 333 334 336 333 326 307 297 293 291 297 298 291 287
178 206 1 0 74 90 228 194 202 175 150 216 153 260 328 258 262 260 259 271 274 277 322 326 342 349 351 352 352 344 343 343 348 356 3 9 10 354 326 312 307 303 300 296
155 215 194 196 207 157 215 206 205 190 203 203 231 280 273 273 264 276 263 265 276 293 302 312 335 348 347 358 355 349 353 358 2 15 24 23 20 14 9 360 354 339 317 299
158 257 226 255 257 246 247 235 207 210 225 230 262 232 267 283 274 263 263 273 289 301 306 307 333 329 342 357 359 5 6 10 13 19 26 23 18 18 17 16 10 2 358 344
192 264 291 291 265 244 252 243 232 231 231 241 255 273 276 279 268 279 287 279 273 281 282 289 321 325 341 353 355 359 6 13 19 20 24 23 20 20 21 20 20 20 19 19
194 241 307 264 306 305 275 235 217 201 206 220 236 243 264 280 281 270 278 251 255 261 265 267 280 292 324 341 346 349 354 6 19 19 25 24 25 27 26 24 24 24 20 15
172 166 253 290 339 266 240 248 170 199 232 221 243 255 250 249 253 256 246 246 257 240 243 239 243 263 290 328 335 340 347 355 5 15 21 24 21 21 22 25 25 23 23 21
200 135 271 268 276 292 294 190 153 172 273 219 228 253 270 283 284 286 228 217 237 228 230 225 230 252 278 311 321 324 331 340 346 359 6 9 11 9 9 16 16 18 18 23
136 120 191 192 279 253 243 192 163 119 286 201 178 231 244 126 355 269 279 244 258 228 226 226 230 245 256 275 289 297 310 317 323 334 340 346 354 357 360 4 11 16 21 26
147 184 215 234 263 278 245 224 188 114 236 178 185 212 154 192 210 242 291 269 255 233 231 233 230 237 251 258 266 275 285 287 304 313 322 325 327 333 332 343 354 3 15 24
169 159 194 196 226 268 176 82 175 214 218 193 196 204 208 234 263 260 262 260 250 242 240 237 237 244 253 251 250 261 268 288 285 291 292 292 295 301 308 311 319 329 339 352
219 192 181 194 213 248 211 214 226 176 196 219 215 239 224 244 252 269 262 257 247 244 250 248 241 250 254 249 247 254 267 279 276 279 287 291 294 297 305 308 308 306 312 315
239 177 235 144 252 234 244 254 237 219 223 222 225 243 235 250 258 261 273 274 267 267 259 260 252 250 258 254 250 254 266 266 266 268 273 279 283 291 290 283 273 260 251 246
212 143 207 262 275 271 256 232 234 250 238 237 224 215 227 227 259 252 264 265 262 268 275 263 250 248 256 262 258 258 257 250 252 257 263 266 265 263 265 263 263 257 253 252
187 210 211 246 204 212 245 214 215 218 224 221 208 242 243 224 245 251 261 262 270 270 275 265 259 256 262 263 262 262 255 246 245 250 254 255 255 256 254 252 252 247 248 251